Time,TemperatureF,DewpointF,PressureIn,WindDirection,WindDirectionDegrees,WindSpeedMPH,WindSpeedGustMPH,Humidity,HourlyPrecipIn,Conditions,Clouds,dailyrainin,SolarRadiationWatts/m^2,SoftwareType,DateUTC
2013-03-31 00:00:00,37.0,25.0,30.14,North,0,0.0,-999.0,61,-99.99,,,-99.99,0.000000,,2013-03-31 06:00:00,
2013-03-31 00:52:00,37.0,25.0,30.14,North,0,0.0,-999.0,61,-99.99,,,-99.99,0.000000,,2013-03-31 06:52:00,
2013-03-31 02:00:00,37.0,23.0,30.14,North,0,0.0,0.0,57,-99.99,,,-99.99,0.000000,,2013-03-31 08:00:00,
2013-03-31 03:00:00,36.0,22.0,30.12,North,0,0.0,-999.0,58,-99.99,,,-99.99,0.000000,,2013-03-31 09:00:00,
2013-03-31 03:53:00,36.0,22.0,30.12,North,0,0.0,-999.0,58,-99.99,,,-99.99,0.000000,,2013-03-31 09:53:00,
2013-03-31 04:00:00,35.0,23.0,30.11,North,0,0.0,-999.0,60,-99.99,,,-99.99,0.000000,,2013-03-31 10:00:00,
2013-03-31 04:53:00,35.0,23.0,30.11,North,0,0.0,-999.0,60,-99.99,,,-99.99,0.000000,,2013-03-31 10:53:00,
2013-03-31 05:00:00,33.0,23.0,30.11,North,0,0.0,-999.0,64,-99.99,,,-99.99,0.000000,,2013-03-31 11:00:00,
2013-03-31 05:52:00,33.0,23.0,30.11,North,0,0.0,-999.0,64,-99.99,,,-99.99,0.000000,,2013-03-31 11:52:00,
2013-03-31 06:00:00,35.0,23.0,30.12,North,0,0.0,-999.0,62,-99.99,,,-99.99,0.000000,,2013-03-31 12:00:00,
2013-03-31 06:53:00,35.0,23.0,30.12,North,0,0.0,-999.0,62,-99.99,,,-99.99,0.000000,,2013-03-31 12:53:00,
2013-03-31 07:00:00,30.0,23.0,30.12,North,0,0.0,-999.0,75,-99.99,,,-99.99,0.030000,,2013-03-31 13:00:00,
2013-03-31 07:53:00,30.0,23.0,30.12,North,0,0.0,-999.0,75,-99.99,,,-99.99,0.030000,,2013-03-31 13:53:00,
2013-03-31 09:00:00,45.0,27.0,30.12,North,0,0.0,-999.0,48,-99.99,,,-99.99,215.399994,,2013-03-31 15:00:00,
2013-03-31 09:54:00,45.0,27.0,30.12,North,0,0.0,-999.0,48,-99.99,,,-99.99,215.399994,,2013-03-31 15:54:00,
2013-03-31 10:00:00,50.0,26.0,30.11,SSW,202,0.0,-999.0,39,-99.99,,,-99.99,416.899994,,2013-03-31 16:00:00,
2013-03-31 10:53:00,50.0,26.0,30.11,SSW,202,0.0,-999.0,39,-99.99,,,-99.99,416.899994,,2013-03-31 16:53:00,
2013-03-31 11:00:00,50.0,26.0,30.10,SSW,202,0.0,4.0,39,-99.99,,,-99.99,416.899994,,2013-03-31 17:00:00,
2013-03-31 12:00:00,60.0,27.0,30.09,SSW,203,2.0,-999.0,28,-99.99,,,-99.99,749.099976,,2013-03-31 18:00:00,
2013-03-31 12:53:00,60.0,27.0,30.09,SSW,203,2.0,-999.0,28,-99.99,,,-99.99,749.099976,,2013-03-31 18:53:00,
2013-03-31 13:00:00,63.0,20.0,30.07,SW,220,2.0,-999.0,19,-99.99,,,-99.99,847.000000,,2013-03-31 19:00:00,
2013-03-31 13:54:00,63.0,20.0,30.07,SW,220,2.0,-999.0,19,-99.99,,,-99.99,847.000000,,2013-03-31 19:54:00,
2013-03-31 14:00:00,68.0,15.0,30.05,SSW,211,2.0,-999.0,13,-99.99,,,-99.99,885.000000,,2013-03-31 20:00:00,
2013-03-31 14:53:00,68.0,15.0,30.05,SSW,211,2.0,-999.0,13,-99.99,,,-99.99,885.000000,,2013-03-31 20:53:00,
2013-03-31 15:00:00,68.0,17.0,30.03,SSW,213,4.0,-999.0,14,-99.99,,,-99.99,811.000000,,2013-03-31 21:00:00,
2013-03-31 15:53:00,68.0,17.0,30.03,SSW,213,4.0,-999.0,14,-99.99,,,-99.99,811.000000,,2013-03-31 21:53:00,
2013-03-31 16:00:00,67.0,22.0,30.00,WSW,250,5.0,-999.0,18,-99.99,,,-99.99,558.799988,,2013-03-31 22:00:00,
2013-03-31 16:53:00,67.0,22.0,30.00,WSW,250,5.0,-999.0,18,-99.99,,,-99.99,558.799988,,2013-03-31 22:53:00,
2013-03-31 17:00:00,65.0,23.0,29.98,WSW,256,2.0,-999.0,20,-99.99,,,-99.99,411.399994,,2013-03-31 23:00:00,
2013-03-31 17:53:00,65.0,23.0,29.98,WSW,256,2.0,-999.0,20,-99.99,,,-99.99,411.399994,,2013-03-31 23:53:00,
2013-03-31 18:00:00,65.0,23.0,29.96,West,269,3.0,-999.0,20,-99.99,,,-99.99,272.899994,,2013-04-01 00:00:00,
2013-03-31 18:53:00,65.0,23.0,29.96,West,269,3.0,-999.0,20,-99.99,,,-99.99,272.899994,,2013-04-01 00:53:00,
2013-03-31 19:00:00,62.0,25.0,29.96,SW,226,2.0,-999.0,24,-99.99,,,-99.99,84.000000,,2013-04-01 01:00:00,
2013-03-31 19:53:00,62.0,25.0,29.96,SW,226,2.0,-999.0,24,-99.99,,,-99.99,84.000000,,2013-04-01 01:53:00,
2013-03-31 20:00:00,56.0,31.0,29.96,South,187,3.0,-999.0,39,-99.99,,,-99.99,13.330000,,2013-04-01 02:00:00,
2013-03-31 20:53:00,56.0,31.0,29.96,South,187,3.0,-999.0,39,-99.99,,,-99.99,13.330000,,2013-04-01 02:53:00,
2013-03-31 21:00:00,56.0,31.0,29.98,SW,230,4.0,-999.0,37,-99.99,,,-99.99,0.000000,,2013-04-01 03:00:00,
2013-03-31 21:53:00,56.0,31.0,29.98,SW,230,4.0,-999.0,37,-99.99,,,-99.99,0.000000,,2013-04-01 03:53:00,
2013-03-31 22:00:00,53.0,35.0,30.01,South,185,2.0,-999.0,51,-99.99,,,-99.99,0.000000,,2013-04-01 04:00:00,
2013-03-31 22:53:00,53.0,35.0,30.01,South,185,2.0,-999.0,51,-99.99,,,-99.99,0.000000,,2013-04-01 04:53:00,
2013-03-31 23:00:00,51.0,36.0,29.99,SW,231,1.0,-999.0,57,-99.99,,,-99.99,0.000000,,2013-04-01 05:00:00,
2013-03-31 23:53:00,51.0,36.0,29.99,SW,231,1.0,-999.0,57,-99.99,,,-99.99,0.000000,,2013-04-01 05:53:00,